• MPC Preparation (Info)

  • MPEC 2023-L15 : 2023 KM5

    The following Minor Planet Electronic Circular may be linked-to from your own Web pages, but must not otherwise be redistributed electronically.

    A form allowing access to any MPEC is at the bottom of this page.


    Read MPEC 2023-L14 Read MPEC 2023-L16


    M.P.E.C. 2023-L15                                  Issued 2023 June 4, 14:06 UT
    
         The Minor Planet Electronic Circulars contain information on unusual
             minor planets, routine data on comets and natural satellites,
             and occasional editorial announcements.  They are published
        on behalf of Division F of the International Astronomical Union by the
              Minor Planet Center, Smithsonian Astrophysical Observatory,
                              Cambridge, MA 02138, U.S.A.
    			  
                 Prepared using the Tamkin Foundation Computer Network
    
                                  MPC@CFA.HARVARD.EDU
                URL https://www.minorplanetcenter.net/    ISSN 1523-6714
    
                                    2023 KM5                                 
    
    
                               Revision to MPEC 2023-L02                            
    
    Additional Observations:
         K23K05M  C2018 11 16.33667 04 08 57.81 -22 37 30.8          22.2 GVEL015G96
         K23K05M  C2018 11 16.34179 04 08 56.81 -22 37 24.7          21.4 GVEL015G96
         K23K05M  C2018 11 16.34694 04 08 55.85 -22 37 18.3          21.0 GVEL015G96
         K23K05M  C2018 11 16.35207 04 08 54.89 -22 37 11.9          22.0 GVEL015G96
         K23K05M  C2019 01 02.31784402 24 55.115+08 19 51.99         21.95GVEL015F51
         K23K05M  C2019 01 02.32906202 24 54.699+08 20 19.78         21.98GVEL015F51
         K23K05M  C2019 01 02.35149002 24 53.868+08 21 15.20         22.03GVEL015F51
         K23K05M  C2019 07 25.26706212 52 55.266-03 24 02.86         22.89GVEL015F51
         K23K05M  C2019 07 25.27153512 52 56.063-03 24 18.16         22.06GVEL015F51
         K23K05M  C2019 07 25.27599412 52 56.885-03 24 33.91         21.52GVEL015F51
    
    Observer details:
    F51 Pan-STARRS 1, Haleakala.  Observers J. Bulger, K. Chambers, T. Lowe, P.
        Minguez, A. Schultz, I. Smith.  Measurers S. Chastel, J. Fairlamb, M.
        Huber, Y. Ramanjooloo, R. Wainscoat, R. Weryk.  1.8-m Ritchey-Chretien +
        CCD.
    G96 Mt. Lemmon Survey.  Observer B. M. Africano.  Measurers B. Gray, D.
        Rankin, F. C. Shelly.  1.5-m reflector + 10K CCD.
    
    Orbital elements:
    2023 KM5                                            PHA, Earth MOID = 0.0279 AU
    Epoch 2023 Feb. 25.0 TT = JDT 2460000.5                 Veres                   
    M 318.15488              (2000.0)            P               Q                  
    n   0.76603816     Peri.  130.32099     -0.74920418     +0.51947568             
    a   1.1829574      Node    84.90989     -0.65990721     -0.63856018             
    e   0.1595486      Incl.   24.36361     +0.05670599     -0.56779037             
    P   1.29           H   21.07          G   0.15           U   1                  
    Residuals in seconds of arc
    181116 G96  0.1+  0.3-    230530 703  1.1-  0.2+    230601 L01  0.2-  0.0
    181116 G96  0.4-  0.3-    230530 703  0.3-  0.6+    230601 L01  1.1-  0.7+
    181116 G96  0.4-  0.1+    230530 703  1.4-  1.1+    230601 L01  0.1-  0.0
    181116 G96  0.3-  0.4+    230530 I52  0.3-  0.2+    230601 L01  0.7-  0.1-
    190102 F51  0.1-  0.0     230530 I52  0.3+  0.1+    230601 L01  0.2-  0.2+
    190102 F51  0.0   0.1+    230530 I52  0.2-  0.1-    230601 W62  0.1+  0.2-
    190102 F51  0.0   0.1+    230530 I52  0.2-  0.0     230601 W62  0.0   0.1-
    190725 F51  0.2+  0.2-    230530 T12  0.1-  0.0     230601 W62  0.0   0.2-
    190725 F51  0.0   0.1+    230530 T12  0.1+  0.1-    230601 I52  0.7+  0.1+
    190725 F51  0.2+  0.1-    230530 T12  0.2-  0.5-    230601 I52  0.1-  0.0
    221202 F51  0.0   0.0     230531 K74  0.3+  1.0-    230601 I52  0.0   0.5-
    221202 F51  0.1-  0.0     230531 K74  0.5+  0.8-    230601 I52  0.2-  0.6+
    221202 F51  0.0   0.1+    230531 H21  0.0   0.1+    230602 I52  0.1-  0.1+
    230109 I52  0.1+  0.2-    230531 H21  0.2+  0.4+    230602 I52  0.5-  0.1+
    230109 I52 (2.1-  2.1-)   230531 H21  0.1+  0.0     230602 I52  0.1+  0.3-
    230109 I52  0.2+  0.1-    230531 I52  0.4-  0.3-    230602 I52  0.1+  0.0
    230530 703  0.1-  0.2-    230531 I52  0.6-  0.6+
    
    Ephemeris:
    2023 KM5                 a,e,i = 1.18, 0.16, 24                  q = 0.9942
    Date    TT    R. A. (2000) Decl.     Delta      r    Elong.  Phase     V
    2023 05 05    20 44 02.2 +40 19 03   0.2826  0.9991    80.1    83.8    21.3
    ...
    2023 05 20    21 28 49.8 +26 38 17   0.2125  1.0142    84.6    83.3    20.7
    ...
    2023 05 28    21 58 15.9 +14 38 00   0.1808  1.0259    88.9    80.9    20.2
    ...
    2023 06 03    22 23 21.3 +02 41 36   0.1640  1.0362    93.2    77.7    19.9
    2023 06 04    22 27 48.1 +00 28 28   0.1620  1.0381    93.9    77.1    19.9
    2023 06 05    22 32 19.5 -01 47 52   0.1603  1.0399    94.7    76.5    19.9
    ...
    2023 06 11    23 01 00.3 -16 06 16   0.1562  1.0517    99.2    72.3    19.7
    ...
    2023 06 19    23 42 45.6 -34 16 43   0.1676  1.0687   103.9    67.4    19.7
    ...
    2023 07 04    01 05 06.0 -56 37 15   0.2260  1.1040   107.0    61.7    20.3
    
    A. U. Tomatic                (C) Copyright 2023 MPC           M.P.E.C. 2023-L15
    


    Read MPEC 2023-L14 Read MPEC 2023-L16


    MPEC number:

    Enter an MPEC number in one of the following forms:

    • 1997-B01 (the full form)
    • J97B01 (the packed version of the full form)
    • B01 (the abbreviated form)